N511 LOWS-EDNY

Flight info

Callsign N511
Flight time 0h 52m
Altitude 14000
Route TRAUN L856 KPT KPT1F
Aircraft DC3/M-SDF/S

Departure

Time 2026-04-23 06:30
Airport Salzburg Airport (LOWS)

Arrival

Time 2026-04-23 07:22
Airport Bodensee Airport Friedrichshafen (EDNY)
Time Latitude Longitude Altitude Speed Heading
2026-04-23 06:09 47.79426 13.00670 1407 ft 0 kts 248°
2026-04-23 06:25 47.79413 13.00630 1407 ft 8 kts 244°
2026-04-23 06:25 47.79453 13.00564 1407 ft 14 kts 322°
2026-04-23 06:25 47.79465 13.00455 1408 ft 9 kts 254°
2026-04-23 06:25 47.79430 13.00325 1410 ft 18 kts 247°
2026-04-23 06:26 47.79378 13.00133 1415 ft 16 kts 276°
2026-04-23 06:26 47.79431 13.00061 1420 ft 12 kts 339°
2026-04-23 06:26 47.79543 12.99991 1422 ft 22 kts 337°
2026-04-23 06:26 47.79707 12.99890 1418 ft 27 kts 337°
2026-04-23 06:27 47.79888 12.99778 1416 ft 26 kts 338°
2026-04-23 06:27 47.80062 12.99668 1416 ft 27 kts 336°
2026-04-23 06:27 47.80218 12.99595 1414 ft 13 kts 15°
2026-04-23 06:27 47.80280 12.99680 1413 ft 10 kts 67°
2026-04-23 06:28 47.80283 12.99790 1411 ft 8 kts 131°
2026-04-23 06:28 47.80238 12.99828 1410 ft 0 kts 157°
2026-04-23 06:29 47.80136 12.99887 1410 ft 40 kts 153°
2026-04-23 06:29 47.79732 13.00146 1466 ft 81 kts 155°
2026-04-23 06:29 47.79134 13.00518 1588 ft 100 kts 156°
2026-04-23 06:29 47.78460 13.00956 1826 ft 108 kts 156°
2026-04-23 06:30 47.77730 13.01468 2070 ft 117 kts 153°
2026-04-23 06:30 47.77002 13.02044 2429 ft 116 kts 152°
2026-04-23 06:30 47.76305 13.02675 2773 ft 116 kts 142°
2026-04-23 06:30 47.75948 13.03779 3013 ft 126 kts 90°
2026-04-23 06:31 47.76233 13.05053 3197 ft 128 kts 51°
2026-04-23 06:31 47.76986 13.05734 3367 ft 126 kts
2026-04-23 06:31 47.77867 13.05629 3592 ft 122 kts 341°
2026-04-23 06:31 47.78603 13.05091 3890 ft 114 kts 320°
2026-04-23 06:32 47.79059 13.04076 4077 ft 119 kts 300°
2026-04-23 06:32 47.79524 13.03053 4311 ft 119 kts 309°
2026-04-23 06:32 47.80062 13.02092 4544 ft 119 kts 313°
2026-04-23 06:32 47.80631 13.01170 4778 ft 120 kts 315°
2026-04-23 06:33 47.81220 13.00269 5008 ft 121 kts 316°
2026-04-23 06:33 47.81849 12.99330 5170 ft 128 kts 316°
2026-04-23 06:33 47.82485 12.98364 5325 ft 133 kts 313°
2026-04-23 06:33 47.83077 12.97250 5484 ft 137 kts 309°
2026-04-23 06:34 47.83646 12.96065 5644 ft 140 kts 308°
2026-04-23 06:34 47.84202 12.94847 5875 ft 138 kts 307°
2026-04-23 06:34 47.84739 12.93645 6079 ft 137 kts 306°
2026-04-23 06:34 47.85272 12.92438 6282 ft 136 kts 306°
2026-04-23 06:35 47.85794 12.91247 6448 ft 137 kts 306°
2026-04-23 06:35 47.86293 12.89977 6595 ft 140 kts 293°
2026-04-23 06:35 47.86637 12.88595 6758 ft 139 kts 298°
2026-04-23 06:35 47.87067 12.87274 6910 ft 140 kts 302°
2026-04-23 06:36 47.87559 12.85996 7053 ft 140 kts 305°
2026-04-23 06:36 47.88080 12.84732 7206 ft 141 kts 306°
2026-04-23 06:36 47.88612 12.83478 7361 ft 141 kts 307°
2026-04-23 06:36 47.89149 12.82230 7510 ft 141 kts 307°
2026-04-23 06:37 47.89689 12.80979 7665 ft 141 kts 307°
2026-04-23 06:37 47.90231 12.79730 7823 ft 141 kts 308°
2026-04-23 06:37 47.90770 12.78486 7979 ft 141 kts 308°
2026-04-23 06:37 47.91313 12.77236 8129 ft 141 kts 308°
2026-04-23 06:38 47.91855 12.75987 8267 ft 142 kts 309°
2026-04-23 06:38 47.92392 12.74749 8407 ft 143 kts 309°
2026-04-23 06:38 47.92943 12.73479 8532 ft 143 kts 309°
2026-04-23 06:38 47.93492 12.72212 8647 ft 144 kts 309°
2026-04-23 06:39 47.94044 12.70936 8773 ft 145 kts 310°
2026-04-23 06:39 47.94599 12.69654 8903 ft 145 kts 310°
2026-04-23 06:39 47.95155 12.68370 9033 ft 145 kts 310°
2026-04-23 06:39 47.95712 12.67084 9154 ft 145 kts 310°
2026-04-23 06:40 47.96266 12.65800 9287 ft 145 kts 311°
2026-04-23 06:40 47.96825 12.64508 9399 ft 146 kts 311°
2026-04-23 06:40 47.97385 12.63209 9519 ft 146 kts 310°
2026-04-23 06:40 47.97928 12.61900 9641 ft 147 kts 307°
2026-04-23 06:41 47.98208 12.60362 9747 ft 159 kts 279°
2026-04-23 06:41 47.97869 12.58706 9875 ft 167 kts 257°
2026-04-23 06:41 47.97552 12.57063 9999 ft 163 kts 266°
2026-04-23 06:41 47.97331 12.55389 10116 ft 162 kts 270°
2026-04-23 06:42 47.97149 12.53701 10206 ft 163 kts 270°
2026-04-23 06:42 47.96981 12.52007 10299 ft 164 kts 271°
2026-04-23 06:42 47.96817 12.50253 10336 ft 169 kts 271°
2026-04-23 06:42 47.96647 12.48455 10432 ft 169 kts 271°
2026-04-23 06:43 47.96484 12.46714 10560 ft 166 kts 271°
2026-04-23 06:43 47.96322 12.44960 10695 ft 167 kts 272°
2026-04-23 06:43 47.96158 12.43156 10855 ft 175 kts 271°
2026-04-23 06:43 47.95981 12.41255 10992 ft 183 kts 271°
2026-04-23 06:44 47.95801 12.39328 11178 ft 185 kts 271°
2026-04-23 06:44 47.95619 12.37405 11457 ft 181 kts 271°
2026-04-23 06:44 47.95443 12.35527 11716 ft 178 kts 271°
2026-04-23 06:44 47.95280 12.33672 11988 ft 175 kts 273°
2026-04-23 06:45 47.95071 12.31832 12248 ft 176 kts 265°
2026-04-23 06:45 47.94844 12.30060 12507 ft 172 kts 269°
2026-04-23 06:45 47.94654 12.28234 12671 ft 177 kts 270°
2026-04-23 06:45 47.94470 12.26356 12816 ft 181 kts 270°
2026-04-23 06:46 47.94292 12.24477 13021 ft 183 kts 270°
2026-04-23 06:46 47.94112 12.22541 13206 ft 185 kts 271°
2026-04-23 06:46 47.93935 12.20604 13413 ft 184 kts 271°
2026-04-23 06:46 47.93762 12.18703 13617 ft 182 kts 271°
2026-04-23 06:47 47.93591 12.16797 13855 ft 181 kts 271°
2026-04-23 06:47 47.93419 12.14875 13986 ft 186 kts 271°
2026-04-23 06:47 47.93244 12.12921 14114 ft 189 kts 271°
2026-04-23 06:47 47.93066 12.10935 14237 ft 192 kts 271°
2026-04-23 06:48 47.92881 12.08879 14299 ft 197 kts 271°
2026-04-23 06:48 47.92694 12.06794 14323 ft 203 kts 270°
2026-04-23 06:48 47.92500 12.04650 14351 ft 210 kts 270°
2026-04-23 06:48 47.92299 12.02430 14317 ft 217 kts 269°
2026-04-23 06:49 47.92093 12.00175 14321 ft 219 kts 270°
2026-04-23 06:49 47.91882 11.97866 14325 ft 221 kts 269°
2026-04-23 06:49 47.91671 11.95557 14317 ft 224 kts 270°
2026-04-23 06:49 47.91457 11.93223 14295 ft 224 kts 269°
2026-04-23 06:50 47.91243 11.90880 14330 ft 223 kts 270°
2026-04-23 06:50 47.91028 11.88542 14315 ft 225 kts 270°
2026-04-23 06:50 47.90810 11.86172 14294 ft 226 kts 270°
2026-04-23 06:50 47.90590 11.83793 14301 ft 225 kts 270°
2026-04-23 06:51 47.90374 11.81455 14300 ft 225 kts 270°
2026-04-23 06:51 47.90158 11.79116 14289 ft 225 kts 270°
2026-04-23 06:51 47.89939 11.76762 14277 ft 224 kts 270°
2026-04-23 06:51 47.89722 11.74420 14288 ft 223 kts 270°
2026-04-23 06:52 47.89504 11.72080 14291 ft 223 kts 270°
2026-04-23 06:52 47.89285 11.69731 14307 ft 223 kts 270°
2026-04-23 06:52 47.89068 11.67414 14300 ft 224 kts 270°
2026-04-23 06:52 47.88848 11.65068 14297 ft 224 kts 270°
2026-04-23 06:53 47.88630 11.62750 14289 ft 223 kts 270°
2026-04-23 06:53 47.88409 11.60405 14281 ft 223 kts 270°
2026-04-23 06:53 47.88189 11.58075 14310 ft 222 kts 270°
2026-04-23 06:53 47.87968 11.55733 14319 ft 223 kts 270°
2026-04-23 06:54 47.87747 11.53407 14310 ft 225 kts 270°
2026-04-23 06:54 47.87522 11.51040 14292 ft 224 kts 270°
2026-04-23 06:54 47.87299 11.48701 14304 ft 223 kts 270°
2026-04-23 06:54 47.87074 11.46351 14303 ft 223 kts 270°
2026-04-23 06:55 47.86852 11.44022 14302 ft 224 kts 270°
2026-04-23 06:55 47.86625 11.41655 14313 ft 223 kts 270°
2026-04-23 06:55 47.86397 11.39284 14315 ft 224 kts 270°
2026-04-23 06:55 47.86169 11.36921 14320 ft 224 kts 270°
2026-04-23 06:56 47.85940 11.34546 14306 ft 225 kts 269°
2026-04-23 06:56 47.85710 11.32171 14313 ft 225 kts 269°
2026-04-23 06:56 47.85481 11.29815 14319 ft 224 kts 269°
2026-04-23 06:56 47.85251 11.27440 14305 ft 225 kts 269°
2026-04-23 06:57 47.85022 11.25098 14294 ft 225 kts 268°
2026-04-23 06:57 47.84768 11.22753 14307 ft 223 kts 268°
2026-04-23 06:57 47.84555 11.20454 14340 ft 223 kts 269°
2026-04-23 06:57 47.84330 11.18084 14303 ft 225 kts 269°
2026-04-23 06:58 47.84103 11.15753 14314 ft 224 kts 269°
2026-04-23 06:58 47.83878 11.13441 14310 ft 224 kts 269°
2026-04-23 06:58 47.83652 11.11140 14330 ft 224 kts 269°
2026-04-23 06:58 47.83419 11.08780 14314 ft 226 kts 269°
2026-04-23 06:59 47.83190 11.06461 14288 ft 227 kts 268°
2026-04-23 06:59 47.82952 11.04080 14300 ft 226 kts 268°
2026-04-23 06:59 47.82719 11.01733 14294 ft 226 kts 269°
2026-04-23 06:59 47.82482 10.99368 14298 ft 226 kts 269°
2026-04-23 07:00 47.82246 10.96991 14281 ft 226 kts 268°
2026-04-23 07:00 47.82008 10.94626 14284 ft 226 kts 269°
2026-04-23 07:00 47.81773 10.92277 14287 ft 226 kts 268°
2026-04-23 07:00 47.81537 10.89938 14294 ft 227 kts 269°
2026-04-23 07:01 47.81303 10.87609 14274 ft 227 kts 269°
2026-04-23 07:01 47.81067 10.85283 14262 ft 227 kts 269°
2026-04-23 07:01 47.80831 10.82944 14261 ft 226 kts 269°
2026-04-23 07:01 47.80592 10.80595 14250 ft 226 kts 269°
2026-04-23 07:02 47.80355 10.78262 14247 ft 226 kts 269°
2026-04-23 07:02 47.80116 10.75914 14247 ft 225 kts 269°
2026-04-23 07:02 47.79878 10.73582 14253 ft 224 kts 269°
2026-04-23 07:02 47.79638 10.71239 14267 ft 223 kts 269°
2026-04-23 07:03 47.79404 10.68942 14259 ft 224 kts 269°
2026-04-23 07:03 47.79163 10.66613 14255 ft 224 kts 269°
2026-04-23 07:03 47.78923 10.64269 14258 ft 224 kts 269°
2026-04-23 07:03 47.78685 10.61964 14231 ft 223 kts 269°
2026-04-23 07:04 47.78447 10.59669 14252 ft 223 kts 269°
2026-04-23 07:04 47.78186 10.57358 14277 ft 225 kts 263°
2026-04-23 07:04 47.77646 10.55116 14306 ft 227 kts 257°
2026-04-23 07:04 47.77065 10.52864 14284 ft 228 kts 256°
2026-04-23 07:05 47.76487 10.50632 14274 ft 230 kts 256°
2026-04-23 07:05 47.75897 10.48358 14246 ft 229 kts 255°
2026-04-23 07:05 47.75320 10.46128 14288 ft 227 kts 255°
2026-04-23 07:05 47.74822 10.43879 14266 ft 224 kts 269°
2026-04-23 07:06 47.74696 10.41598 14293 ft 221 kts 271°
2026-04-23 07:06 47.74521 10.39278 14312 ft 221 kts 271°
2026-04-23 07:06 47.74347 10.36968 14308 ft 222 kts 272°
2026-04-23 07:06 47.74016 10.34648 14253 ft 230 kts 256°
2026-04-23 07:07 47.73489 10.32365 14292 ft 229 kts 256°
2026-04-23 07:07 47.72966 10.30112 14307 ft 228 kts 256°
2026-04-23 07:07 47.72434 10.27820 14294 ft 228 kts 257°
2026-04-23 07:07 47.71906 10.25555 14289 ft 229 kts 256°
2026-04-23 07:08 47.71379 10.23278 14296 ft 228 kts 257°
2026-04-23 07:08 47.70852 10.21020 14192 ft 233 kts 257°
2026-04-23 07:08 47.70309 10.18638 13969 ft 240 kts 257°
2026-04-23 07:08 47.69768 10.16251 13723 ft 240 kts 257°
2026-04-23 07:09 47.69334 10.13822 13491 ft 236 kts 266°
2026-04-23 07:09 47.69017 10.11372 13170 ft 242 kts 265°
2026-04-23 07:09 47.68697 10.08872 12861 ft 241 kts 265°
2026-04-23 07:09 47.68383 10.06383 12565 ft 242 kts 265°
2026-04-23 07:10 47.68069 10.03906 12278 ft 241 kts 265°
2026-04-23 07:10 47.67744 10.01400 11864 ft 243 kts 262°
2026-04-23 07:10 47.67329 9.98932 11410 ft 241 kts 262°
2026-04-23 07:10 47.66924 9.96500 10934 ft 239 kts 261°
2026-04-23 07:11 47.66531 9.94067 10488 ft 237 kts 261°
2026-04-23 07:11 47.66103 9.91654 10024 ft 238 kts 256°
2026-04-23 07:11 47.65621 9.89319 9592 ft 235 kts 257°
2026-04-23 07:12 47.64626 9.84664 8640 ft 228 kts 257°
2026-04-23 07:12 47.64145 9.82447 8159 ft 219 kts 257°
2026-04-23 07:12 47.63685 9.80300 7687 ft 212 kts 257°
2026-04-23 07:12 47.63241 9.78224 7219 ft 206 kts 257°
2026-04-23 07:13 47.62817 9.76199 6752 ft 202 kts 257°
2026-04-23 07:13 47.62410 9.74193 6277 ft 198 kts 257°
2026-04-23 07:13 47.62017 9.72233 5806 ft 195 kts 257°
2026-04-23 07:13 47.61632 9.70293 5338 ft 193 kts 257°
2026-04-23 07:14 47.61254 9.68388 4873 ft 191 kts 257°
2026-04-23 07:14 47.60887 9.66507 4411 ft 189 kts 257°
2026-04-23 07:14 47.60519 9.64605 3943 ft 188 kts 257°
2026-04-23 07:14 47.60159 9.62729 3476 ft 186 kts 257°
2026-04-23 07:15 47.59952 9.60830 2974 ft 183 kts 279°
2026-04-23 07:15 47.60599 9.59348 2950 ft 153 kts 324°
2026-04-23 07:15 47.61429 9.58435 2972 ft 147 kts 324°
2026-04-23 07:15 47.62245 9.57488 2975 ft 148 kts 320°
2026-04-23 07:16 47.63036 9.56444 2997 ft 149 kts 321°
2026-04-23 07:16 47.63869 9.55463 2956 ft 153 kts 321°
2026-04-23 07:16 47.64699 9.54416 2910 ft 157 kts 319°
2026-04-23 07:16 47.65607 9.53519 2939 ft 155 kts 347°
2026-04-23 07:17 47.66584 9.53888 2605 ft 142 kts 36°
2026-04-23 07:17 47.67202 9.54894 2488 ft 118 kts 53°
2026-04-23 07:17 47.67142 9.55897 2695 ft 104 kts 149°
2026-04-23 07:17 47.66526 9.55598 2832 ft 115 kts 244°
2026-04-23 07:18 47.66096 9.54403 2754 ft 139 kts 249°
2026-04-23 07:18 47.65673 9.53033 2804 ft 146 kts 248°
2026-04-23 07:18 47.65161 9.51670 2902 ft 151 kts 242°
2026-04-23 07:18 47.64586 9.50337 3049 ft 144 kts 239°
2026-04-23 07:19 47.63998 9.49207 2914 ft 131 kts 235°
2026-04-23 07:19 47.63496 9.48097 2779 ft 113 kts 258°
2026-04-23 07:19 47.63488 9.47080 2417 ft 88 kts 297°
2026-04-23 07:19 47.63810 9.46421 2103 ft 78 kts 327°
2026-04-23 07:20 47.64292 9.46317 1998 ft 65 kts 25°
2026-04-23 07:20 47.64717 9.46576 1947 ft 67 kts 30°
2026-04-23 07:20 47.65143 9.46929 1901 ft 70 kts 31°
2026-04-23 07:20 47.65540 9.47330 1798 ft 63 kts 51°
2026-04-23 07:21 47.65819 9.47856 1742 ft 65 kts 54°
2026-04-23 07:21 47.66078 9.48446 1674 ft 70 kts 57°
2026-04-23 07:21 47.66334 9.49112 1571 ft 75 kts 62°
2026-04-23 07:21 47.66597 9.49764 1437 ft 71 kts 61°
2026-04-23 07:22 47.66830 9.50367 1356 ft 61 kts 60°
2026-04-23 07:22 47.66986 9.50792 1348 ft 33 kts 63°
2026-04-23 07:22 47.67092 9.51052 1352 ft 26 kts 58°
2026-04-23 07:22 47.67167 9.51176 1352 ft 1 kts
2026-04-23 07:23 47.67222 9.51123 1352 ft 13 kts 328°
2026-04-23 07:23 47.67313 9.51023 1352 ft 15 kts 326°
2026-04-23 07:23 47.67376 9.50956 1352 ft 7 kts 324°
2026-04-23 07:23 47.67385 9.50948 1352 ft 1 kts 333°
2026-04-23 07:24 47.67393 9.50949 1352 ft 5 kts 157°
2026-04-23 07:24 47.67342 9.50986 1352 ft 7 kts 133°
2026-04-23 07:24 47.67309 9.51025 1352 ft 2 kts 151°
2026-04-23 07:24 47.67276 9.51061 1352 ft 11 kts 140°
2026-04-23 07:25 47.67192 9.51165 1352 ft 17 kts 142°
2026-04-23 07:25 47.67075 9.51303 1354 ft 12 kts 149°
2026-04-23 07:25 47.67053 9.51322 1354 ft 0 kts 152°
2026-04-23 07:25 47.67003 9.51291 1355 ft 13 kts 248°
2026-04-23 07:26 47.66953 9.51183 1352 ft 3 kts 157°
2026-04-23 07:26 47.66896 9.51228 1353 ft 3 kts 77°
2026-04-23 07:26 47.66911 9.51296 1355 ft 5 kts 150°
2026-04-23 07:26 47.66862 9.51271 1354 ft 9 kts 240°
2026-04-23 07:27 47.66856 9.51250 1354 ft 0 kts 252°